Regional Weather Roundup
Issued by NWS Binghamton, NY

Home | Current Version | Previous Version | Text Only | Print | Product List | Glossary On
Versions: 1 2 3 4 5 6 7 8 9 10 11 12 13 14 15 16 17 18 19 20 21 22 23 24 25 26 27
000
ASUS41 KBGM 221810
RWRBGM

REGIONAL WEATHER ROUNDUP
NATIONAL WEATHER SERVICE BINGHAMTON NY
200 PM EDT SUN APR 22 2018

Note: "fair" indicates few or no clouds below 12,000 feet with no
significant weather and/or obstructions to visibility.

* = Station(s) that does not report precipitation, such as rain,
snow, etc, also no thunder or fog.

NYZ009-015>018-022>025-036-037-044>046-055>057-062-221900
...Central New York...

CITY           SKY/WX    TMP DP  RH WIND       PRES   REMARKS
Binghamton     FAIR      56  17  21 N12G20    30.37S
Cortland       FAIR      55  19  24 NW13G20   30.39F
Dansville      FAIR      61  18  18 N8G17     30.40F
Elmira         FAIR      62  22  21 NW12G21   30.38F
Ithaca         FAIR      58  21  24 N10G17    30.40F
Monticello     FAIR      57  16  20 N6G20     30.36F
Penn Yan       FAIR      61  19  19 NW10      30.41F
Rome           FAIR      60  19  20 NW10G24   30.39F
Sidney         SUNNY     59  19  21 N8G18     30.37S
Syracuse       FAIR      58  21  24 NW14G22   30.40F
$$

PAZ038>040-043-044-047-048-072-221900
...Northeast Pennsylvania...

CITY           SKY/WX    TMP DP  RH WIND       PRES   REMARKS
Hazleton       FAIR      61  18  18 NW6       30.39F
Scranton       FAIR      60  19  20 VRB5      30.36F
$$
&&
KEY
WCI = Wind Chill Index
VSB = Visibility
HX  = Heat Index
$$




USA.gov is the U.S. government's official web portal to all federal, state and local government web resources and services.